Regional Weather Roundup
Issued by NWS Albany, NY

Home | Current Version | Previous Version | Graphics & Text | Print | Product List | Glossary Off
Versions: 1 2 3 4 5 6 7 8 9 10 11 12 13 14 15 16 17 18 19 20 21 22 23 24 25 26 27 28 29 30 31 32 33 34 35 36 37 38 39 40 41 42 43 44 45 46 47 48 49 50

609
ASUS41 KALY 240210
RWRALY

NEW YORK STATE HOURLY WEATHER ROUNDUP
NATIONAL WEATHER SERVICE ALBANY NY
1000 PM EDT SAT JUL 23 2016

NOTE: "FAIR" INDICATES FEW OR NO CLOUDS BELOW 12,000 FEET WITH NO
SIGNIFICANT WEATHER AND/OR NO OBSTRUCTIONS TO VISIBILITY.

NYZ032-033-038>043-046>054-057>066-NYZ062>081-082-084-240300-
EAST


CITY           SKY/WX    TMP DP  RH WIND       PRES   REMARKS
ALBANY         PTCLDY    68  64  87 N5        29.91R
GLENS FALLS    CLEAR     62  60  93 CALM      29.91S FOG
POUGHKEEPSIE   CLEAR     79  59  50 CALM      29.87R
NEWBURGH       CLEAR     81  59  47 CALM      29.91R
MONTGOMERY     CLEAR     74  60  61 CALM      29.89R
WHITE PLAINS   CLEAR     80  56  43 NW7       29.87R
ISLIP          PTCLDY    82  59  45 NW7       29.84R
NEW YORK CITY  PTCLDY    89  57  33 N9        29.85R
CENTRAL PARK   CLEAR     88  55  32 MISG      29.89R
$$

NYZ005>009-017-018-044>046-055-056-240300-
CENTRAL


CITY           SKY/WX    TMP DP  RH WIND       PRES   REMARKS
FULTON         PTCLDY    74  63  68 NW5       29.92R
SYRACUSE       PTCLDY    77  59  53 NW10      29.91R
ROME           CLEAR     66  66 100 SE5       29.93R
ELMIRA         CLEAR     72  54  53 N6        29.96R
BINGHAMTON     CLEAR     75  54  47 W5        29.98R
MONTICELLO     CLEAR     70  57  64 W5        29.98R
$$

NYZ026>034-041>043-087-240300-
NORTH


CITY           SKY/WX    TMP DP  RH WIND       PRES   REMARKS
WATERTOWN      CLEAR     71  63  75 E5        29.92R
FORT DRUM      NOT AVBL
MASSENA        CLEAR     66  63  90 CALM      29.93R
SARANAC LAKE   PTCLDY    60  58  92 CALM      29.97R
PLATTSBURGH    MOCLDY    66  64  93 S3        29.90R
$$

NYZ001>004-010>016-019>021-085-240300-
WEST


CITY           SKY/WX    TMP DP  RH WIND       PRES   REMARKS
NIAGARA FALLS  PTCLDY    81  55  40 NE8       29.95R
BUFFALO        CLEAR     77  66  68 CALM      29.96R
DUNKIRK        PTCLDY    76  61  59 S8        29.97R
JAMESTOWN      CLEAR     75  57  53 W9        30.03R
WELLSVILLE     CLEAR     75  55  49 NW7       30.05R
ROCHESTER      CLEAR     77  59  53 W5        29.95R
PENN YAN       CLEAR     75  56  51 SW3       29.97R
$$

             KEY
       WCI = WIND CHILL INDEX
       VSB = VISIBILITY
       HX  = HEAT INDEX
$$




USA.gov is the U.S. government's official web portal to all federal, state and local government web resources and services.